Location: Linz
(48.3300°N, 14.3000°E)
Time: 11:03:15
(UTC+01:00)

Envisat - Visible Passes

Search period start: 24 February 2018 00:00
Search period end: 06 March 2018 00:00
Orbit: 764 x 766 km, 98.2° (Epoch: 23 February)

Date Brightness Start Highest point End Pass type
(mag) Time Alt. Az. Time Alt. Az. Time Alt. Az.
24 Feb 4.2 18:06:25 10° ESE 18:10:16 22° ENE 18:14:08 10° N visible
24 Feb 3.5 19:43:52 10° S 19:48:53 60° W 19:53:56 10° NNW visible
25 Feb 2.9 19:07:07 10° SSE 19:12:09 68° ENE 19:17:13 10° N visible
25 Feb 5.5 20:48:14 10° SW 20:51:41 18° W 20:55:07 10° NW visible
26 Feb 3.6 18:31:04 10° SE 18:35:36 34° ENE 18:40:11 10° N visible
26 Feb 4.4 20:09:57 10° SSW 20:14:36 36° W 20:19:18 10° NNW visible
27 Feb 3.1 19:32:39 10° S 19:37:44 74° WSW 19:42:50 10° NNW visible
27 Feb 6.0 21:16:47 10° W 21:17:39 10° W 21:18:30 10° WNW visible
28 Feb 3.1 18:56:06 10° SSE 19:01:03 55° ENE 19:06:02 10° N visible
28 Feb 5.3 20:36:30 10° SW 20:40:24 22° W 20:44:21 10° NW visible
01 Mar 3.9 18:20:16 10° ESE 18:24:34 29° ENE 18:28:53 10° N visible
01 Mar 4.1 19:58:33 10° S 20:03:24 44° W 20:08:17 10° NNW visible
02 Mar 2.9 19:21:30 10° SSE 19:26:35 90° E 19:31:42 10° NNW visible
02 Mar 5.8 21:03:56 10° WSW 21:06:20 13° W 21:08:44 10° WNW visible
03 Mar 3.3 18:45:09 10° SE 18:49:58 45° ENE 18:54:48 10° N visible
03 Mar 4.9 20:24:53 10° SSW 20:29:10 27° W 20:33:29 10° NW visible
04 Mar 3.7 19:47:14 10° S 19:52:13 55° W 19:57:13 10° NNW visible
05 Mar 2.9 19:10:24 10° SSE 19:15:27 74° ENE 19:20:33 10° N visible
05 Mar 5.6 20:51:51 10° SW 20:55:03 17° W 20:58:15 10° NW visible
